Weather History for Danville, KY

Change the Weather History Date:

Monday, July 1, 2013

  Actual Average (KLEX) Record (KLEX)
Temperature  
Mean Temperature 68 °F 76 °F  
Max Temperature 78 °F 86 °F 103 °F (2012)
Min Temperature 59 °F 66 °F 48 °F (1937)
Degree Days  
Heating Degree Days 0 0  
Month to date heating degree days 0  
Since 1 June heating degree days 11  
Since 1 July heating degree days 0  
Cooling Degree Days 4 11  
Month to date cooling degree days 11  
Year to date cooling degree days 360  
Since 1 June cooling degree days 253  
Growing Degree Days 18 (Base 50)    
Moisture  
Dew Point 62 °F    
Average Humidity 87    
Maximum Humidity 100    
Minimum Humidity 57    
Precipitation  
Precipitation 0.00 in 0.14 in 1.59 in (1915)
Month to date precipitation 0.14  
Year to date precipitation 23.91  
Snow  
Snow 0.00 in 0.00 in - ()
Month to date snowfall 0.0  
Since 1 June snowfall 0.0  
Since 1 July snowfall 0.0  
Snow Depth -    
Sea Level Pressure  
Sea Level Pressure 29.87 in    
Wind  
Wind Speed 2 mph (NNE)    
Max Wind Speed 12 mph    
Max Gust Speed 34 mph    
Visibility 10 miles    
Events Rain    
T = Trace of Precipitation, MM = Missing Value Source: NWS Daily Summary

Daily Weather History Graph

Daily Weather History Graph

Search for Another Location

Airport:

Trip Planner

Search our weather history database for the weather conditions in past years. The results will help you decide how hot, cold, wet, or windy it might be!

Date:

Astronomy

Jul. 01, 2013 Rise Set
Actual Time 6:21 AM EDT 9:04 PM EDT
Civil Twilight 5:50 AM EDT 9:35 PM EDT
Nautical Twilight 5:11 AM EDT 10:14 PM EDT
Astronomical Twilight 4:27 AM EDT 10:57 PM EDT
Moon 1:46 AM EDT (7/1) 3:22 PM EDT (7/1)
Length of Visible Light 15h 44m
Length of Day
14h 42m
Waning Crescent, 35% of the Moon is Illuminated
Jul 1
Waning Crescent
Jul 8
New
Jul 15
First Quarter
Jul 22
Full
Jul 29
Last Quarter

Hourly Weather History & Observations

Time (EDT) Temp. Dew Point Humidity Pressure Visibility Wind Dir Wind Speed Gust Speed Precip Events Conditions
12:15 AM 66.2 °F 62.6 °F 88% 29.83 in 10.0 mi Calm Calm - N/A   Clear
12:35 AM 66.2 °F 64.4 °F 94% 29.83 in 10.0 mi Calm Calm - N/A   Clear
12:55 AM 64.4 °F 62.6 °F 94% 29.84 in 10.0 mi Calm Calm - N/A   Clear
1:15 AM 64.4 °F 62.6 °F 94% 29.84 in 10.0 mi Calm Calm - N/A   Clear
1:35 AM 64.4 °F 62.6 °F 94% 29.83 in 10.0 mi Calm Calm - N/A   Clear
1:55 AM 64.4 °F 62.6 °F 94% 29.83 in 10.0 mi Calm Calm - N/A   Clear
2:15 AM 64.4 °F 62.6 °F 94% 29.82 in 10.0 mi Calm Calm - N/A   Clear
2:35 AM 64.4 °F 62.6 °F 94% 29.82 in 10.0 mi Calm Calm - N/A   Clear
2:55 AM 64.4 °F 62.6 °F 94% 29.82 in 10.0 mi Calm Calm - N/A   Scattered Clouds
3:15 AM 64.4 °F 62.6 °F 94% 29.82 in 10.0 mi Calm Calm - N/A   Scattered Clouds
3:35 AM 64.4 °F 62.6 °F 94% 29.82 in 10.0 mi Calm Calm - N/A   Scattered Clouds
3:55 AM 62.6 °F 62.6 °F 100% 29.82 in 10.0 mi Calm Calm - N/A   Scattered Clouds
4:15 AM 64.4 °F 62.6 °F 94% 29.82 in 10.0 mi Calm Calm - N/A   Mostly Cloudy
4:35 AM 64.4 °F 62.6 °F 94% 29.82 in 10.0 mi Calm Calm - N/A   Scattered Clouds
4:55 AM 64.4 °F 62.6 °F 94% 29.83 in 10.0 mi Calm Calm - N/A   Mostly Cloudy
5:15 AM 64.4 °F 62.6 °F 94% 29.83 in 10.0 mi Calm Calm - N/A   Overcast
5:35 AM 64.4 °F 64.4 °F 100% 29.84 in 7.0 mi Calm Calm - N/A Rain Light Rain
5:55 AM 64.4 °F 62.6 °F 94% 29.83 in 7.0 mi NE 3.5 mph - N/A Rain Light Rain
6:15 AM 64.4 °F 62.6 °F 94% 29.84 in 7.0 mi Calm Calm - N/A Rain Rain
6:35 AM 64.4 °F 62.6 °F 94% 29.84 in 7.0 mi Calm Calm - N/A   Mostly Cloudy
6:55 AM 64.4 °F 64.4 °F 100% 29.85 in 7.0 mi NE 3.5 mph - N/A Rain Rain
7:15 AM 64.4 °F 64.4 °F 100% 29.85 in 7.0 mi East 5.8 mph - N/A Rain Rain
7:35 AM 64.4 °F 64.4 °F 100% 29.86 in 10.0 mi Calm Calm - N/A   Overcast
7:55 AM 64.4 °F 64.4 °F 100% 29.86 in 10.0 mi Calm Calm - N/A   Overcast
8:15 AM 64.4 °F 64.4 °F 100% 29.86 in 10.0 mi Calm Calm - N/A   Overcast
8:35 AM 66.2 °F 64.4 °F 94% 29.87 in 10.0 mi Calm Calm - N/A   Overcast
8:55 AM 66.2 °F 64.4 °F 94% 29.87 in 10.0 mi East 4.6 mph - N/A   Overcast
9:15 AM 68.0 °F 64.4 °F 88% 29.87 in 10.0 mi East 3.5 mph - N/A   Overcast
9:35 AM 68.0 °F 64.4 °F 88% 29.87 in 10.0 mi Calm Calm - N/A   Overcast
9:55 AM 68.0 °F 64.4 °F 88% 29.88 in 10.0 mi Calm Calm - N/A Rain Light Rain
10:15 AM 68.0 °F 66.2 °F 94% 29.90 in 3.0 mi WSW 10.4 mph 16.1 mph N/A Rain Heavy Rain
10:35 AM 66.2 °F 62.6 °F 88% 29.88 in 10.0 mi Calm Calm - N/A   Overcast
10:55 AM 71.6 °F 66.2 °F 83% 29.89 in 10.0 mi SW 3.5 mph - N/A   Mostly Cloudy
11:15 AM 71.6 °F 62.6 °F 73% 29.90 in 10.0 mi NW 4.6 mph - N/A   Scattered Clouds
11:35 AM 71.6 °F 62.6 °F 73% 29.90 in 10.0 mi NW 10.4 mph - N/A   Scattered Clouds
11:55 AM 71.6 °F 64.4 °F 78% 29.90 in 10.0 mi NNW 6.9 mph - N/A   Mostly Cloudy
12:15 PM 73.4 °F 64.4 °F 73% 29.90 in 10.0 mi NNW 6.9 mph - N/A   Scattered Clouds
12:35 PM 73.4 °F 64.4 °F 73% 29.89 in 10.0 mi NNW 4.6 mph - N/A   Clear
12:55 PM 75.2 °F 62.6 °F 65% 29.88 in 10.0 mi NW 3.5 mph - N/A   Clear
1:15 PM 75.2 °F 64.4 °F 69% 29.88 in 10.0 mi Calm Calm - N/A   Clear
1:35 PM 77.0 °F 64.4 °F 65% 29.87 in 10.0 mi NNW 3.5 mph - N/A   Clear
1:55 PM 77.0 °F 64.4 °F 65% 29.87 in 10.0 mi Calm Calm - N/A   Clear
2:15 PM 78.8 °F 62.6 °F 57% 29.86 in 10.0 mi Calm Calm - N/A   Clear
2:35 PM 78.8 °F 64.4 °F 61% 29.85 in 10.0 mi NNE 3.5 mph - N/A   Clear
2:55 PM 78.8 °F 64.4 °F 61% 29.85 in 10.0 mi North 3.5 mph - N/A   Mostly Cloudy
3:15 PM 78.8 °F 64.4 °F 61% 29.85 in 10.0 mi NNE 5.8 mph - N/A   Mostly Cloudy
3:35 PM 77.0 °F 64.4 °F 65% 29.85 in 10.0 mi NE 5.8 mph - N/A   Mostly Cloudy
3:55 PM 75.2 °F 64.4 °F 69% 29.86 in 10.0 mi Calm Calm - N/A   Overcast
4:15 PM 75.2 °F 66.2 °F 73% 29.86 in 10.0 mi NE 11.5 mph - N/A   Overcast
4:35 PM 69.8 °F 59.0 °F 68% 29.86 in 10.0 mi NNE 10.4 mph - N/A Rain Light Rain
4:55 PM 68.0 °F 60.8 °F 78% 29.86 in 10.0 mi North 6.9 mph - N/A Rain Light Rain
5:15 PM 66.2 °F 60.8 °F 83% 29.87 in 10.0 mi North 8.1 mph - N/A Rain Light Rain
5:35 PM 68.0 °F 60.8 °F 78% 29.87 in 10.0 mi West 3.5 mph - N/A   Overcast
5:55 PM 68.0 °F 60.8 °F 78% 29.87 in 10.0 mi NE 5.8 mph - N/A   Overcast
6:15 PM 68.0 °F 62.6 °F 83% 29.87 in 10.0 mi North 4.6 mph - N/A Rain Rain
6:35 PM 62.6 °F 60.8 °F 94% 29.96 in 0.8 mi WNW 8.1 mph 34.5 mph N/A Rain Heavy Rain
6:55 PM 62.6 °F 60.8 °F 94% 29.93 in 10.0 mi North 4.6 mph - N/A Rain Light Rain
7:15 PM 62.6 °F 60.8 °F 94% 29.92 in 10.0 mi NE 4.6 mph - N/A Rain Light Rain
7:35 PM 62.6 °F 60.8 °F 94% 29.90 in 10.0 mi NNE 6.9 mph - N/A   Scattered Clouds
7:55 PM 62.6 °F 60.8 °F 94% 29.91 in 10.0 mi East 6.9 mph - N/A   Scattered Clouds
8:15 PM 62.6 °F 60.8 °F 94% 29.92 in 10.0 mi ESE 4.6 mph - N/A   Clear
8:35 PM 60.8 °F 59.0 °F 94% 29.92 in 10.0 mi ESE 3.5 mph - N/A   Clear
8:55 PM 60.8 °F 59.0 °F 94% 29.92 in 10.0 mi South 3.5 mph - N/A   Mostly Cloudy
9:15 PM 60.8 °F 59.0 °F 94% 29.91 in 10.0 mi South 3.5 mph - N/A   Scattered Clouds
9:35 PM 59.0 °F 59.0 °F 100% 29.90 in 10.0 mi Calm Calm - N/A   Clear
9:55 PM 59.0 °F 59.0 °F 100% 29.91 in 10.0 mi Calm Calm - N/A   Clear
10:15 PM 59.0 °F 59.0 °F 100% 29.92 in 10.0 mi Calm Calm - N/A   Clear
10:35 PM 59.0 °F 59.0 °F 100% 29.92 in 10.0 mi Calm Calm - N/A   Clear
10:55 PM 59.0 °F 59.0 °F 100% 29.92 in 10.0 mi Calm Calm - N/A   Clear
11:15 PM 59.0 °F 59.0 °F 100% 29.94 in 10.0 mi Calm Calm - N/A   Scattered Clouds
11:35 PM 59.0 °F 59.0 °F 100% 29.94 in 10.0 mi NNE 3.5 mph - N/A   Mostly Cloudy
11:55 PM 59.0 °F 59.0 °F 100% 29.94 in 10.0 mi Calm Calm - N/A   Scattered Clouds